STARLINK-1453, 45670

Orbit data source: Space-Track

STARLINK-1453, 45670 is a payload satellite owned by SpaceX/Seattle (US) in LEO that was launched on Thu, 04 Jun 2020 UTC via an FALCON 9 launch vehicle from the Air Force Eastern Test Range (AFETR). Payload-class satellites include a variety of spacecraft equipped with specific instruments for various scientific and technological missions. These include communications satellites like Starlink; space stations such as the ISS; scientific satellites like the Hubble; Earth observation satellites from companies like Planet Labs, Umbra, and HawkEye 360; GPS; miniature CubeSats for education and research; and military/defense satellites.

Loading next visibility...
Identifier
45670, 2020-035P
Orbit
LEO
Country
Flag of USUS
Related business
Manufacturer
SpaceX/Seattle
Mission
Operational Commercial Communications
Bus & Motor
STARLINK, Unknown motor
Mass
260 kg wet, ~248 kg dry
Launch date (UTC)
2020-06-04 (6 years ago)
Launch vehicle
FALCON 9
Launch site
Air Force Eastern Test Range (AFETR)
Object type
Payload
Rocket body
Debris
Shape & HBR
Box + 1 Pan, 10.1 m
Radar Cross Section
13.562 m², Large (>1 m²)

Expand to show TLE details & history
Last TLE update: 14 hours ago

TLE from 14 hours ago
0 STARLINK-1453
1 45670U 20035P   25347.66679398  .02037418  00000-0  78287-1 0  9995
2 45670  53.0547  61.5597 0000967  61.1659 276.7953 15.22413925  5818
Epoch: 2025-12-13T16:00Z
TLE epoch observation values (Epoch: 2025-12-13T16:00:10.999Z)
Latitude
-17.63171°
Longitude
85.17179°
Altitude
503.279 km
Speed
7.613 km/s
True Right ascension
03h 11m 14s
True Declination
-17° 31' 44"
Sunlit
Object was in full shadow at epoch
Visualization orbit readout
Latitude
Unknown
Longitude
Unknown
Altitude
Unknown
Speed
Unknown
Apparent Right ascension
Unknown
Apparent Declination
Unknown
Sunlit
N/A
Visualization observer readout
Local Sidereal Time
04:21:14
Azimuth
Unknown
Elevation
Unknown
Doppler factor
Unknown
Orbital elements
Apogee altitude
499.499 km
Perigee altitude
498.169 km
Semi-major axis
6,876.971 km
Eccentricity
0.0001
Inclination
53.0547°
RAAN
61.5597°
Arg. of periapsis
61.1659°
True anomaly
276.7843°
Mean anomaly
276.7953°
Eccentric anomaly
276.7898°
Mean motion
3.80581 °/min
Orbital period
94.59 mins
BSTAR
0.078287
Loading maneuver chart data...
Computing Atmospheric mass density...
Loading historical data...
Loading historical data...
Loading historical data...
Loading historical data...
Loading historical data...
Loading historical data...
Loading historical data...

Documentation

Showing up to 5 results
|